Simultaneous Nadir Overpasses (SNOs) Predictions

Prediction of SNOs between AQUA and METOP-A Satellite Orbit:

Table of predicted SNOs for the next 14.0 days since TLE Epoch: 6/6/2015
Index Date (AQUA) Time (AQUA) Lat,Lon (AQUA) SZA (AQUA ) Date (METOP-A) Time (METOP-A) Lat,Lon (METOP-A) SZA (METOP-A ) Distance(km) Time Diff (sec)
1 06/06/2015 03:53:22 -73.99, -64.26 128.62 06/06/2015 03:54:14 -74.00, -64.15 128.62 3.61 52
2 06/08/2015 21:48:33 -73.40, 28.16 129.51 06/08/2015 21:47:25 -73.34, 26.06 129.49 67.04 68
3 06/08/2015 22:38:10 73.90,-165.27 51.02 06/08/2015 22:37:54 73.89,-165.34 51.01 2.37 16
4 06/08/2015 23:27:37 -73.97, 2.21 128.91 06/08/2015 23:28:34 -73.96, 2.17 128.92 1.44 57
5 06/11/2015 17:22:52 -73.57, 94.24 129.55 06/11/2015 17:21:42 -73.50, 92.82 129.56 45.33 70
6 06/11/2015 18:12:26 73.91, -98.86 50.81 06/11/2015 18:12:14 73.89, -98.92 50.80 2.54 12
7 06/11/2015 19:01:53 -73.98, 68.62 129.12 06/11/2015 19:02:54 -73.97, 68.59 129.13 1.16 61
8 06/14/2015 12:57:11 -73.76, 160.26 129.51 06/14/2015 12:55:58 -73.70, 159.70 129.53 18.84 73
9 06/14/2015 13:46:42 73.94, -32.51 50.69 06/14/2015 13:46:33 73.94, -32.40 50.69 3.50 9
10 06/14/2015 14:36:08 -73.96, 135.09 129.29 06/14/2015 14:37:14 -73.97, 135.01 129.29 2.78 66
11 06/17/2015 08:31:27 -73.87,-133.55 129.49 06/17/2015 08:30:14 -73.84,-133.55 129.51 3.22 73
12 06/17/2015 09:20:55 73.90, 34.01 50.55 06/17/2015 09:20:52 73.93, 33.99 50.57 3.07 3




NCC Satellite Simultaneous Nadir Overpasses (SNOs) Prediction Service
